Wetbulb
42.50 41.78 41.04 41.21 41.06 40.46 39.74 38.76 36.14 32.85 34.32 40.20 40.02 45.15 46.20 46.69 46.76 46.57 46.11 44.79 43.82 43.32 43.55 43.77 43.63 43.46 42.97 42.80 43.01 44.07 45.72 46.10 46.85 48.51 49.90 52.14 52.72 52.85
41.73 41.38 41.26 41.64 41.27 40.97 39.43 38.61 37.94 35.73 32.47 37.91 39.25 42.04 43.25 42.69 44.22 44.33 43.83 44.02 42.62 42.43 42.29 42.57 43.00 42.66 42.17 41.77 41.67 43.65 44.01 43.98 44.12 44.81 46.77 48.29 52.03 52.10
40.21 39.86 39.64 40.71 40.05 40.09 40.42 40.21 39.04 38.08 34.32 37.07 39.07 41.37 41.94 42.32 42.58 44.05 43.94 43.99 43.87 41.31 40.44 41.36 41.43 41.15 41.03 40.81 41.67 43.09 42.21 41.48 41.65 42.08 43.04 45.18 47.35 50.67
39.24 39.05 38.20 38.20 38.00 38.59 38.29 37.49 37.94 38.46 37.04 35.21 37.65 38.32 39.43 41.34 41.59 42.08 41.27 41.83 43.04 41.41 41.27 40.73 40.71 40.45 40.22 40.08 40.93 40.40 39.86 39.85 40.03 40.21 40.36 41.77 43.37 45.20
37.87 37.41 37.19 37.16 36.39 37.03 37.03 36.70 36.96 36.64 36.99 35.76 35.37 38.16 38.83 39.70 39.50 40.46 40.80 41.55 41.06 41.16 39.63 39.82 40.19 40.36 40.40 40.48 40.17 39.46 39.00 38.50 38.39 38.76 39.44 40.26 40.96 41.69
36.97 36.76 36.56 36.10 35.84 36.02 35.74 35.75 35.41 34.99 34.93 34.91 35.23 35.72 36.87 38.43 38.61 37.32 37.32 39.86 39.57 40.07 39.93 38.52 39.23 39.44 39.30 39.05 38.65 38.85 38.80 38.52 38.57 38.67 38.63 38.39 38.63 39.87
35.38 35.89 36.47 36.53 34.38 33.93 32.94 32.65 32.85 32.48 33.13 33.27 33.50 34.22 33.96 33.30 33.46 35.74 35.27 36.54 37.68 38.56 38.40 39.11 39.84 39.70 40.29 39.09 38.95 38.90 38.32 38.59 39.33 39.03 38.10 37.76 38.25 39.17
33.11 34.52 35.77 35.67 35.27 33.98 33.41 32.75 32.04 29.56 28.64 29.06 29.40 29.98 30.59 32.11 32.99 32.45 33.47 32.40 31.05 38.05 35.45 36.14 38.41 37.64 38.70 39.81 38.69 37.79 37.75 38.80 38.36 38.41 38.65 38.66 39.16 39.08
33.02 33.47 33.51 34.58 34.16 34.07 32.55 31.92 31.44 31.32 30.17 29.97 28.14 29.03 29.36 31.50 32.23 31.66 31.93 32.15 31.72 34.78 35.28 33.79 37.85 36.42 39.07 38.07 37.50 37.28 37.54 37.39 38.37 38.46 38.09 37.61 37.52 37.32
32.40 32.29 32.18 32.13 32.35 31.24 30.67 30.56 30.99 31.86 32.46 32.47 31.63 31.94 33.11 34.24 34.27 33.41 33.30 33.08 34.21 35.21 36.22 30.94 36.33 35.25 37.42 38.63 37.78 37.50 37.05 36.80 37.40 37.30 37.22 36.50 36.63 37.24
30.23 31.11 31.08 31.02 31.59 31.80 30.88 30.37 29.72 31.25 33.26 33.68 33.39 33.30 33.04 32.91 33.27 32.88 30.55 29.28 30.33 32.05 35.77 33.18 34.18 34.17 35.44 36.33 38.19 37.21 36.95 36.75 36.51 36.51 36.31 36.47 36.56 37.66
29.37 29.81 29.98 30.40 30.46 30.76 30.56 29.20 27.64 29.01 30.38 30.64 31.42 32.20 32.77 33.47 32.52 33.09 31.86 28.71 28.86 28.84 33.90 31.61 32.82 33.31 30.96 36.59 37.07 37.93 38.23 36.09 35.98 36.44 36.53 36.44 36.96 38.63
27.74 28.16 30.20 30.50 28.89 28.13 27.86 27.92 27.52 29.27 28.42 28.83 29.78 31.27 33.01 34.06 34.40 34.71 34.26 32.60 30.07 29.83 33.33 32.74 32.56 33.26 32.67 32.30 35.65 37.11 37.90 38.42 38.69 38.36 36.10 36.17 36.54 37.47
26.81 29.32 30.40 28.16 28.00 27.40 27.13 27.43 27.93 27.17 28.57 29.64 30.34 30.51 32.34 33.94 34.26 35.33 35.74 35.73 35.87 33.80 35.35 34.48 33.44 32.60 31.74 31.70 30.92 35.27 36.49 37.61 38.07 38.52 37.29 38.07 35.84 36.80
28.66 27.83 27.08 28.34 27.27 27.64 28.53 27.35 26.95 28.14 29.79 28.62 28.89 29.57 31.54 33.73 34.64 34.54 35.21 35.27 36.02 35.73 35.29 35.54 33.98 33.36 33.25 31.54 30.96 32.97 33.58 36.08 37.66 36.91 35.89 35.05 34.88 35.56
26.23 26.58 28.35 27.37 27.67 28.35 29.11 29.20 29.76 30.14 28.80 28.78 29.15 30.47 32.61 33.27 33.77 33.92 32.34 33.35 33.04 32.87 35.21 35.37 34.89 33.54 31.56 32.30 32.12 31.76 33.69 32.25 36.10 36.35 34.80 34.25 35.16 36.57
24.14 27.09 25.83 24.74 24.23 25.86 26.95 27.39 28.57 28.35 28.00 28.33 28.72 29.53 29.90 30.76 32.50 33.97 32.32 31.64 30.62 31.07 31.95 34.22 35.08 34.64 33.60 32.22 30.48 32.25 33.01 33.35 35.14 35.72 34.80 33.87 35.08 35.79
23.75 23.38 22.81 22.38 21.86 23.05 23.96 24.82 26.23 25.92 25.95 27.02 27.73 27.85 27.57 28.48 29.06 31.67 32.95 32.30 30.41 31.02 31.53 33.19 34.04 31.29 31.11 31.47 32.68 31.14 32.52 33.30 34.71 35.34 35.38 33.28 33.31 37.36
21.88 21.77 21.09 20.82 20.92 21.73 22.94 23.20 23.27 25.29 26.31 25.79 26.47 26.73 26.90 27.06 28.14 28.55 30.00 30.77 30.55 32.22 32.50 33.94 34.32 33.03 28.97 27.42 30.46 30.30 31.09 32.60 34.05 33.75 34.72 33.18 31.78 33.95
20.82 20.30 19.74 20.52 20.84 20.24 20.91 21.41 22.56 24.45 24.94 25.05 25.79 26.25 26.56 26.85 27.51 26.71 27.18 27.70 27.95 29.16 30.98 32.60 31.09 28.61 27.59 27.43 28.86 27.69 29.22 29.64 30.95 31.26 33.41 34.18 31.66 28.41
19.50 19.41 20.16 20.09 19.85 20.18 21.33 22.19 23.13 23.42 23.84 24.05 24.94 25.13 26.01 26.74 26.34 26.58 26.95 27.42 28.06 28.19 27.55 27.65 28.76 28.89 30.42 32.90 29.52 27.74 27.75 28.71 29.34 29.61 31.96 32.61 30.23 30.68
19.05 18.77 19.20 19.71 19.70 19.67 20.56 21.54 22.50 22.74 22.49 22.23 23.53 24.91 26.07 26.85 25.91 26.42 26.88 26.69 26.89 27.54 27.93 29.81 30.48 29.94 29.70 28.14 26.90 26.23 27.25 28.33 28.64 28.06 27.51 27.29 27.15 26.12
18.13 18.74 19.26 19.28 19.33 19.32 19.20 19.54 20.01 21.15 21.03 21.51 21.85 23.28 25.42 25.10 25.93 26.57 26.45 26.56 26.33 26.41 26.89 27.39 28.83 29.08 27.39 27.10 27.29 26.50 25.52 27.13 29.03 26.48 26.45 28.06 28.57 28.39
MSLP
1017.99 1017.92 1017.83 1017.66 1017.55 1017.42 1017.39 1017.18 1016.93 1015.95 1014.86 1013.95 1014.09 1013.93 1014.07 1014.29 1013.15 1013.47 1013.78 1013.95 1014.49 1014.99 1015.27 1015.50 1015.71 1015.81 1015.90 1015.94 1015.84 1015.75 1015.72 1015.70 1015.65 1015.52 1015.40 1015.27 1015.14 1014.94
1018.12 1017.83 1017.39 1017.04 1016.73 1016.55 1016.50 1016.41 1016.27 1016.13 1015.36 1014.48 1013.91 1013.48 1013.24 1013.03 1012.70 1013.08 1013.27 1013.53 1013.95 1014.52 1014.86 1014.94 1015.10 1015.30 1015.46 1015.56 1015.63 1015.43 1015.34 1015.31 1015.37 1015.36 1015.19 1015.06 1014.79 1014.63
1017.39 1017.17 1016.76 1016.31 1015.83 1015.43 1015.13 1015.11 1015.06 1014.92 1014.35 1013.71 1013.40 1013.00 1012.84 1012.80 1012.57 1012.57 1012.62 1012.85 1013.02 1013.37 1013.55 1013.80 1014.18 1014.33 1014.58 1014.82 1014.96 1014.99 1015.05 1014.93 1014.92 1014.98 1014.87 1014.71 1014.52 1014.26
1016.71 1016.39 1015.88 1015.62 1015.42 1015.21 1014.94 1014.60 1014.26 1013.93 1013.53 1012.85 1012.74 1012.57 1012.43 1012.34 1012.24 1012.14 1012.11 1012.06 1012.21 1012.23 1012.47 1012.80 1013.10 1013.38 1013.64 1013.87 1014.13 1014.32 1014.39 1014.41 1014.35 1014.30 1014.37 1014.36 1014.29 1014.01
1016.33 1016.00 1015.70 1015.58 1015.28 1015.02 1014.79 1014.46 1014.17 1013.80 1013.50 1012.99 1012.45 1012.38 1012.13 1012.09 1011.84 1011.75 1011.75 1011.76 1011.69 1011.72 1011.95 1012.25 1012.51 1012.67 1012.82 1012.93 1013.19 1013.41 1013.47 1013.47 1013.55 1013.62 1013.53 1013.72 1013.73 1013.68
1016.40 1016.02 1015.71 1015.51 1015.18 1014.85 1014.52 1014.29 1014.07 1013.81 1013.56 1013.06 1012.40 1012.00 1011.77 1011.51 1011.34 1011.21 1011.03 1010.96 1010.74 1010.66 1010.63 1010.80 1011.01 1011.43 1011.83 1012.11 1012.29 1012.45 1012.51 1012.58 1012.69 1012.74 1012.70 1012.88 1013.01 1013.01
1016.27 1015.71 1015.22 1015.06 1015.34 1015.43 1015.29 1014.97 1014.71 1014.29 1013.71 1012.97 1012.11 1011.54 1011.34 1011.50 1011.61 1011.39 1010.98 1010.83 1010.62 1010.85 1010.83 1010.76 1010.71 1010.81 1010.94 1011.19 1011.14 1011.06 1011.21 1011.32 1011.47 1011.57 1011.77 1012.01 1012.07 1012.14
1015.98 1015.32 1014.74 1014.51 1014.26 1014.37 1014.58 1014.74 1014.98 1014.83 1014.45 1014.00 1013.18 1012.44 1012.20 1012.21 1012.12 1011.87 1011.49 1011.20 1010.98 1011.05 1010.86 1010.49 1010.66 1010.40 1010.38 1010.15 1010.07 1010.48 1010.58 1010.47 1010.58 1010.75 1010.92 1011.11 1011.21 1011.32
1015.79 1015.13 1014.63 1014.09 1013.97 1013.89 1014.10 1014.33 1014.43 1014.44 1014.34 1013.99 1013.35 1012.73 1012.36 1012.15 1011.97 1011.61 1011.39 1010.98 1010.56 1010.51 1010.45 1010.00 1010.16 1009.88 1009.88 1009.62 1009.73 1009.84 1009.97 1010.07 1010.21 1010.32 1010.34 1010.44 1010.55 1010.68
1015.85 1015.28 1014.71 1014.30 1014.21 1014.39 1014.22 1013.86 1013.60 1013.26 1012.99 1012.76 1012.57 1012.06 1011.81 1011.59 1011.43 1011.12 1010.81 1010.48 1010.23 1009.99 1009.89 1009.32 1009.49 1009.13 1009.22 1009.11 1009.15 1009.20 1009.27 1009.30 1009.35 1009.42 1009.52 1009.71 1009.83 1009.86
1015.99 1015.48 1015.04 1014.52 1014.03 1013.97 1013.92 1013.46 1012.98 1012.38 1011.86 1011.90 1011.88 1011.56 1011.21 1011.03 1010.95 1010.82 1010.37 1010.36 1009.26 1008.86 1008.92 1008.73 1008.52 1008.39 1008.36 1008.18 1008.13 1008.18 1008.21 1008.30 1008.42 1008.54 1008.66 1008.85 1009.02 1009.04
1015.76 1015.18 1014.69 1014.17 1013.74 1013.62 1013.43 1013.17 1012.68 1012.08 1011.69 1011.26 1010.94 1010.58 1010.26 1009.88 1009.77 1009.85 1009.65 1009.25 1008.86 1008.32 1008.28 1008.34 1008.17 1007.80 1007.45 1007.17 1007.06 1007.03 1007.14 1007.30 1007.43 1007.52 1007.70 1007.89 1008.17 1008.25
1015.53 1014.86 1014.24 1013.93 1013.76 1013.55 1013.40 1013.01 1012.49 1012.14 1011.63 1011.18 1010.56 1009.87 1009.22 1008.74 1008.50 1008.37 1008.44 1008.37 1008.06 1007.57 1007.60 1007.93 1007.83 1007.34 1006.82 1006.70 1006.35 1006.48 1006.47 1006.46 1006.54 1006.55 1006.72 1006.85 1007.16 1007.48
1015.33 1014.55 1013.98 1013.76 1013.46 1013.19 1012.88 1012.44 1012.19 1011.91 1011.29 1010.56 1009.80 1009.04 1008.35 1007.77 1007.59 1007.47 1007.29 1007.17 1007.05 1007.12 1007.13 1007.55 1007.22 1006.84 1006.45 1006.32 1005.98 1005.82 1005.71 1005.74 1005.89 1005.99 1005.95 1005.90 1006.24 1006.55
1015.22 1014.56 1014.07 1013.60 1013.28 1012.73 1012.21 1012.03 1011.71 1011.16 1010.50 1010.01 1009.32 1008.70 1008.08 1007.53 1007.23 1006.88 1006.55 1006.30 1006.39 1006.39 1006.45 1006.61 1006.88 1006.77 1006.49 1006.24 1005.76 1005.57 1005.57 1005.33 1005.64 1005.67 1005.83 1005.83 1005.91 1006.03
1015.25 1014.55 1013.79 1013.48 1013.03 1012.47 1011.78 1011.41 1011.06 1010.66 1010.37 1009.83 1009.31 1008.73 1008.09 1007.44 1006.86 1006.44 1006.23 1005.94 1005.75 1005.59 1005.65 1005.85 1006.07 1006.32 1006.28 1006.10 1005.89 1005.61 1005.48 1005.41 1005.33 1005.36 1005.60 1005.69 1005.62 1005.46
1015.39 1014.27 1013.80 1013.54 1013.13 1012.44 1011.91 1011.47 1011.02 1010.70 1010.29 1009.95 1009.38 1008.75 1008.20 1007.57 1006.95 1006.51 1006.33 1006.00 1005.56 1005.16 1004.88 1005.04 1005.45 1005.75 1005.81 1005.79 1005.67 1005.42 1005.18 1005.00 1004.65 1004.92 1005.38 1005.32 1005.37 1005.35
1015.25 1014.66 1014.33 1014.14 1013.71 1013.06 1012.47 1011.87 1011.36 1011.00 1010.66 1010.17 1009.63 1009.14 1008.63 1008.06 1007.52 1006.84 1006.27 1005.94 1005.59 1005.11 1004.67 1004.49 1004.91 1005.29 1005.56 1005.52 1005.50 1005.13 1004.88 1004.85 1004.56 1004.40 1004.76 1004.72 1004.74 1004.78
1015.63 1015.21 1014.96 1014.69 1014.29 1013.70 1013.06 1012.55 1012.00 1011.50 1011.08 1010.49 1009.98 1009.49 1009.02 1008.53 1007.93 1007.26 1006.67 1006.10 1005.63 1005.19 1004.86 1004.55 1004.62 1004.53 1004.55 1004.36 1004.52 1005.11 1004.98 1004.73 1004.49 1004.35 1004.39 1004.56 1004.78 1004.86
1016.07 1015.77 1015.49 1015.12 1014.65 1014.10 1013.63 1013.12 1012.56 1011.94 1011.43 1010.88 1010.31 1009.82 1009.31 1008.67 1008.00 1007.66 1007.22 1006.66 1006.11 1005.57 1005.03 1004.87 1004.91 1005.13 1005.02 1004.93 1004.76 1005.40 1005.38 1005.20 1004.89 1004.54 1004.30 1004.33 1005.04 1005.37
1016.46 1016.20 1015.92 1015.50 1015.04 1014.67 1014.23 1013.61 1012.97 1012.41 1011.94 1011.38 1010.75 1010.18 1009.57 1008.88 1008.32 1007.94 1007.50 1006.96 1006.42 1005.92 1005.53 1005.40 1005.52 1005.56 1005.29 1004.82 1004.65 1004.99 1005.58 1005.68 1005.42 1005.01 1004.56 1004.39 1004.79 1004.95
1016.89 1016.50 1016.15 1015.80 1015.50 1015.14 1014.67 1014.12 1013.39 1012.82 1012.39 1011.96 1011.35 1010.63 1009.85 1009.21 1008.68 1008.19 1007.77 1007.24 1006.75 1006.36 1006.04 1005.73 1005.41 1005.18 1004.94 1004.78 1004.71 1005.04 1005.28 1005.58 1005.66 1005.50 1005.47 1005.43 1005.40 1005.14
1017.42 1016.99 1016.57 1016.26 1015.93 1015.58 1015.12 1014.63 1014.05 1013.49 1013.02 1012.55 1012.02 1011.14 1010.29 1009.65 1009.16 1008.64 1008.22 1007.76 1007.28 1006.80 1006.37 1005.88 1005.57 1005.35 1005.23 1005.12 1005.03 1005.10 1005.38 1005.39 1005.29 1005.48 1005.84 1005.92 1005.84 1005.86
Wind_Speed
5 5 5 4 4 4 4 4 4 4 8 8 7 8 7 11 9 9 9 11 15 14 13 12 13 13 14 15 18 18 16 14 14 14 14 16 18 17
5 9 8 7 7 7 7 7 7 7 9 10 8 9 9 10 10 7 9 8 7 11 13 14 13 15 16 16 17 19 17 15 14 15 15 15 16 17
9 11 12 12 8 8 8 9 10 10 11 10 10 10 11 11 11 9 10 10 9 16 19 19 18 18 17 15 17 15 16 17 17 17 17 18 17 18
11 12 14 11 13 12 10 12 11 12 11 15 11 9 12 11 12 12 10 12 11 12 15 19 20 18 17 16 15 15 15 15 17 18 18 19 18 18
15 15 14 14 13 11 12 11 11 11 11 11 11 10 10 10 11 11 12 12 12 15 10 13 16 17 17 17 17 17 18 19 18 17 16 15 16 18
15 14 14 15 15 14 13 13 12 11 12 12 12 11 11 11 10 10 10 9 10 12 12 12 10 17 20 21 19 18 19 21 20 19 14 13 14 16
16 16 14 12 11 12 11 13 14 12 11 11 11 11 10 10 12 10 10 9 10 9 9 9 8 8 8 17 21 21 23 22 20 18 19 17 16 15
16 16 15 15 14 13 16 18 15 13 13 11 12 13 13 11 10 10 10 9 10 7 10 10 9 9 10 9 12 5 7 14 19 19 17 14 12 13
16 15 14 13 12 14 11 9 11 15 15 14 15 15 15 14 14 14 13 12 11 8 9 10 8 10 8 9 10 12 11 11 10 11 11 11 13 16
15 16 16 16 15 13 13 14 14 14 14 12 16 16 15 14 14 14 14 13 11 10 10 12 8 10 8 8 13 14 16 16 15 15 14 14 15 16
15 15 14 16 17 16 11 12 14 13 13 15 18 23 22 22 20 12 11 11 10 9 9 11 9 10 9 10 8 15 17 19 20 20 19 18 18 16
13 14 16 17 18 13 9 10 13 13 12 13 12 14 16 16 20 15 12 12 12 13 10 9 10 9 8 8 10 9 9 18 20 20 20 19 18 9
10 10 10 9 11 12 13 11 13 12 12 12 11 10 11 11 9 10 12 12 12 12 9 8 6 9 9 8 5 5 5 6 7 10 20 20 18 15
12 11 10 20 16 16 13 14 12 12 9 9 8 9 8 6 6 7 9 10 11 12 10 5 4 8 7 8 8 6 6 6 5 5 5 8 18 16
11 14 21 12 14 12 11 11 12 8 6 7 7 8 8 8 8 8 8 9 9 10 8 9 5 8 7 6 8 6 5 5 4 5 4 3 3 6
13 11 10 8 10 10 7 6 5 5 6 7 7 7 8 7 7 5 6 5 5 6 8 10 9 8 8 8 8 7 7 6 3 4 3 4 2 5
13 8 6 7 8 7 7 6 6 6 6 6 7 7 7 8 6 5 4 6 6 6 6 5 8 7 7 8 7 7 7 8 6 5 5 4 4 4
9 6 7 7 8 9 8 8 7 8 8 8 7 7 7 7 7 8 5 4 6 6 6 4 5 6 4 7 14 8 7 5 7 3 5 4 4 5
6 6 7 7 8 8 8 9 9 8 9 8 7 7 6 7 7 7 7 7 6 5 6 5 2 4 7 8 1 2 7 6 5 4 4 3 4 2
6 7 7 7 7 8 9 8 9 8 8 8 7 7 7 7 6 6 6 6 7 8 6 4 6 7 6 5 4 3 7 3 5 6 4 4 3 7
7 7 7 7 8 8 8 8 9 8 8 8 8 8 7 7 7 6 6 9 7 6 6 5 5 5 6 3 4 4 4 9 7 4 4 4 4 5
7 7 7 7 8 8 8 8 8 8 8 8 8 8 8 7 7 7 7 7 7 6 5 5 4 4 4 4 3 3 3 2 6 12 12 8 3 3
7 7 7 7 7 7 8 8 9 8 9 8 8 9 8 8 8 7 7 7 7 7 7 6 5 3 3 3 3 3 2 2 2 6 7 8 9 8
Wind_Direction
268 238 239 235 235 232 244 256 288 302 298 282 270 254 223 256 256 241 244 223 210 224 217 225 236 244 257 270 279 279 274 277 284 288 284 284 269 275
304 299 284 267 256 247 234 230 221 245 271 281 286 271 269 277 281 260 254 265 229 206 220 226 234 243 255 264 267 265 268 273 281 288 289 285 281 275
274 275 281 279 279 283 258 236 232 227 248 261 268 264 269 272 270 274 267 255 254 228 224 221 225 236 241 246 254 247 260 275 280 282 287 286 284 277
293 292 295 293 294 290 283 281 282 286 287 286 280 283 279 279 280 277 271 270 265 260 214 222 226 227 229 235 236 247 259 268 273 275 275 282 283 284
308 303 299 295 292 291 290 289 285 286 288 283 282 280 278 278 276 274 272 264 265 264 240 203 219 228 233 229 232 238 250 261 261 264 262 265 272 277
299 293 290 290 290 291 290 293 290 285 278 272 269 266 263 261 264 263 260 256 258 265 261 253 242 229 237 248 253 252 253 254 257 253 243 250 255 265
299 292 286 293 307 284 282 285 285 282 279 276 280 287 289 291 284 291 293 296 292 297 296 292 287 272 256 233 249 248 243 239 236 241 252 254 253 252
298 295 293 290 268 254 248 250 258 279 282 285 286 280 280 276 272 276 279 274 270 248 262 266 269 264 268 274 283 312 330 264 244 240 246 250 244 250
294 301 302 296 302 302 319 299 270 255 251 263 269 268 272 274 280 276 270 266 269 270 265 264 255 255 257 261 253 273 272 252 235 238 243 253 252 251
302 300 302 306 305 297 286 281 276 269 259 248 250 262 270 279 279 273 275 275 273 266 263 266 259 257 257 248 251 251 255 262 252 245 243 252 256 250
306 306 298 290 290 292 291 286 285 278 273 268 265 268 273 271 264 273 266 269 273 260 247 258 257 259 252 253 250 245 244 243 246 246 248 250 252 253
305 304 296 286 293 304 287 290 291 291 296 295 293 288 276 265 258 250 256 257 260 264 258 268 268 264 266 239 241 243 242 237 238 238 239 243 246 248
307 300 296 320 333 320 306 291 283 301 292 288 281 274 268 262 255 242 236 238 246 254 256 259 258 255 250 264 255 237 235 237 234 232 238 235 232 232
306 300 311 326 320 313 301 291 294 293 277 272 280 283 283 278 275 265 256 245 241 251 266 243 256 256 260 267 263 265 253 237 233 238 248 227 218 220
308 328 313 311 309 297 294 290 285 269 278 291 294 302 305 307 302 290 284 261 242 249 245 245 218 257 272 268 270 269 303 268 225 250 231 208 212 210
331 310 307 306 307 303 310 315 303 312 316 310 315 306 304 311 300 310 311 302 260 252 224 229 228 238 256 258 268 274 274 267 258 214 200 234 272 214
315 308 343 351 335 336 344 343 341 344 338 334 324 325 327 330 330 323 290 304 295 285 268 220 214 228 245 258 263 258 270 267 252 200 204 216 212 223
316 353 354 353 345 343 349 348 356 358 349 338 334 339 336 333 334 325 332 278 288 306 300 297 188 206 220 241 233 253 265 262 277 211 205 229 241 204
351 354 355 353 347 341 350 353 347 348 341 342 338 340 340 329 327 334 340 340 342 313 284 299 297 249 244 246 147 294 253 263 290 264 204 194 245 329
359 351 352 347 347 350 353 349 340 344 349 343 347 343 344 331 343 348 341 338 338 325 334 12 15 5 334 356 350 71 33 302 299 282 234 172 72 107
356 352 351 347 352 350 347 344 338 349 351 346 350 349 344 340 354 351 339 339 343 351 347 359 352 288 283 268 219 136 85 48 37 3 327 192 189 203
349 349 349 352 352 351 347 346 341 353 357 354 349 342 345 354 351 352 347 343 352 345 345 336 331 325 323 315 25 88 99 103 80 68 59 44 357 359
349 345 347 350 354 350 351 349 348 351 356 354 348 340 345 356 350 357 351 350 355 351 349 343 339 346 356 356 357 73 102 32 337 78 54 50 79 88